Back to catalog

DIADEME 1

AliveScienceLEO
NORAD 2674·PAYLOAD·🇫🇷 France

Launched Feb 8, 1967 from Hammaguir Space Track Range

Loading…

Next Passes (next 24 hours)

TLE

FreshSource: Space-Track

Epoch: Sep 14, 2026, 04:46 UTC

1 02674U 67011A   26257.19930122  .00002268  00000-0  25157-3 0  9994
2 02674  39.9156 178.7779 0202683 145.5603 215.8504 14.75285318103255

Track DIADEME 1 in real time with AllMySat

Download on the App Store